Precipitable_Water
0.49 0.52 0.56 0.63 0.68 0.66 0.64 0.62 0.56 0.53 0.51 0.46 0.42 0.33 0.31 0.33 0.34 0.35 0.36 0.36 0.37 0.36 0.34 0.31 0.29 0.27 0.25 0.30 0.29 0.29 0.26 0.26
0.49 0.53 0.60 0.64 0.63 0.62 0.62 0.59 0.52 0.50 0.47 0.42 0.37 0.29 0.29 0.32 0.36 0.35 0.37 0.37 0.34 0.32 0.31 0.29 0.29 0.26 0.24 0.24 0.28 0.26 0.24 0.27
0.50 0.56 0.59 0.60 0.63 0.63 0.61 0.55 0.53 0.52 0.48 0.42 0.34 0.31 0.32 0.34 0.35 0.35 0.33 0.31 0.30 0.30 0.28 0.28 0.27 0.25 0.23 0.25 0.26 0.26 0.27 0.30
0.52 0.55 0.56 0.60 0.62 0.59 0.56 0.54 0.50 0.48 0.46 0.39 0.31 0.31 0.31 0.30 0.29 0.29 0.29 0.29 0.30 0.29 0.29 0.27 0.26 0.26 0.25 0.24 0.24 0.28 0.28 0.33
0.53 0.55 0.56 0.60 0.62 0.58 0.53 0.52 0.49 0.46 0.45 0.33 0.31 0.30 0.27 0.27 0.29 0.30 0.28 0.29 0.27 0.29 0.27 0.27 0.27 0.27 0.26 0.27 0.31 0.35 0.37 0.35
0.52 0.54 0.57 0.61 0.59 0.52 0.54 0.50 0.45 0.45 0.39 0.33 0.32 0.29 0.28 0.28 0.27 0.27 0.25 0.25 0.25 0.26 0.27 0.30 0.31 0.34 0.36 0.38 0.42 0.44 0.45 0.43
0.55 0.56 0.57 0.55 0.55 0.53 0.50 0.46 0.42 0.40 0.34 0.33 0.30 0.28 0.26 0.24 0.24 0.23 0.22 0.24 0.25 0.28 0.32 0.37 0.40 0.42 0.45 0.48 0.49 0.49 0.48 0.47
0.53 0.51 0.51 0.51 0.50 0.49 0.46 0.40 0.39 0.35 0.33 0.30 0.29 0.27 0.26 0.24 0.23 0.23 0.24 0.23 0.27 0.32 0.39 0.43 0.48 0.51 0.51 0.50 0.50 0.48 0.47 0.45
0.48 0.49 0.50 0.50 0.47 0.44 0.42 0.40 0.32 0.31 0.30 0.28 0.28 0.27 0.26 0.23 0.24 0.24 0.24 0.29 0.34 0.40 0.43 0.50 0.50 0.51 0.50 0.47 0.43 0.41 0.41 0.40
0.46 0.48 0.50 0.47 0.43 0.44 0.40 0.30 0.30 0.30 0.28 0.28 0.27 0.26 0.23 0.24 0.23 0.24 0.30 0.37 0.40 0.45 0.49 0.50 0.48 0.46 0.46 0.43 0.38 0.37 0.40 0.39
0.46 0.48 0.46 0.44 0.44 0.41 0.32 0.31 0.29 0.28 0.28 0.28 0.26 0.23 0.24 0.22 0.23 0.29 0.35 0.41 0.47 0.48 0.46 0.45 0.45 0.48 0.43 0.40 0.38 0.38 0.38 0.37
0.43 0.43 0.43 0.43 0.40 0.34 0.30 0.29 0.28 0.27 0.27 0.26 0.23 0.21 0.22 0.22 0.29 0.33 0.43 0.45 0.47 0.49 0.51 0.48 0.51 0.47 0.47 0.44 0.44 0.39 0.35 0.36
0.40 0.40 0.41 0.38 0.34 0.30 0.29 0.28 0.26 0.27 0.25 0.23 0.21 0.21 0.24 0.27 0.32 0.38 0.44 0.47 0.51 0.54 0.57 0.55 0.53 0.52 0.50 0.48 0.42 0.41 0.35 0.36
0.39 0.40 0.38 0.35 0.30 0.27 0.27 0.26 0.25 0.24 0.22 0.21 0.20 0.22 0.25 0.30 0.35 0.38 0.46 0.51 0.54 0.56 0.59 0.56 0.54 0.55 0.53 0.50 0.46 0.42 0.39 0.40
0.39 0.38 0.37 0.31 0.27 0.26 0.26 0.25 0.25 0.23 0.21 0.20 0.20 0.24 0.28 0.32 0.37 0.44 0.51 0.52 0.55 0.60 0.59 0.59 0.57 0.57 0.55 0.53 0.47 0.46 0.41 0.42
0.37 0.37 0.33 0.28 0.25 0.26 0.25 0.24 0.23 0.21 0.19 0.18 0.21 0.28 0.31 0.36 0.42 0.51 0.51 0.56 0.59 0.62 0.62 0.60 0.59 0.56 0.57 0.54 0.51 0.50 0.41 0.41
0.37 0.36 0.30 0.25 0.24 0.24 0.24 0.23 0.22 0.20 0.17 0.18 0.23 0.28 0.33 0.37 0.45 0.48 0.54 0.58 0.61 0.64 0.60 0.59 0.62 0.63 0.61 0.59 0.57 0.56 0.51 0.45
0.35 0.32 0.27 0.24 0.23 0.23 0.22 0.21 0.20 0.17 0.17 0.19 0.22 0.27 0.32 0.38 0.42 0.44 0.50 0.56 0.61 0.61 0.62 0.63 0.59 0.64 0.64 0.63 0.63 0.60 0.59 0.52
0.33 0.30 0.25 0.23 0.23 0.23 0.23 0.20 0.17 0.16 0.15 0.17 0.20 0.24 0.28 0.32 0.37 0.46 0.46 0.55 0.56 0.56 0.55 0.58 0.64 0.67 0.67 0.66 0.67 0.65 0.64 0.60
Wind_Speed
14 13 13 14 15 16 17 18 19 21 22 23 26 27 28 28 28 30 31 32 32 31 32 32 31 32 32 32 33 33 34 33
12 11 10 13 14 14 16 17 18 20 23 26 27 27 28 28 28 29 30 30 32 33 33 33 34 34 34 35 35 35 35 35
10 9 11 12 13 15 15 16 18 22 24 27 27 29 28 28 29 30 31 33 35 34 34 35 35 36 36 36 36 36 35 35
10 11 11 10 12 14 15 16 18 22 25 28 29 28 29 29 30 31 32 34 33 35 36 36 36 35 35 36 36 35 35 34
10 9 10 11 12 13 14 17 20 24 26 27 28 28 29 30 30 31 33 33 36 35 35 33 33 34 35 35 34 33 32 31
7 6 7 8 9 12 16 19 21 24 26 27 28 28 29 30 31 32 34 35 34 33 32 31 32 32 33 33 32 31 31 31
4 3 5 7 10 14 17 19 21 24 26 27 28 28 30 31 32 33 34 32 30 29 29 31 33 35 33 32 33 34 34 33
2 1 4 8 12 15 18 20 23 25 26 27 27 29 30 31 32 32 29 28 27 30 32 34 34 32 33 36 34 33 35 34
2 2 6 10 14 17 19 22 23 25 26 27 27 28 29 30 28 26 26 28 30 31 31 30 32 33 31 31 32 34 34 34
3 5 8 12 15 18 21 22 23 24 25 25 26 28 28 26 25 25 27 28 29 28 26 31 32 29 27 28 26 25 22 23
4 7 10 14 17 19 20 21 22 22 24 25 26 25 24 24 24 26 27 27 28 28 32 31 31 28 26 26 23 19 17 18
7 9 12 14 17 19 20 20 21 23 23 24 23 22 23 24 24 25 26 27 27 32 32 32 30 27 25 25 23 17 13 11
8 10 13 15 17 18 19 21 22 22 22 21 21 22 23 24 24 25 28 29 29 32 33 29 29 29 27 28 21 16 10 7
10 12 14 17 18 18 20 21 21 20 20 20 21 23 24 24 25 27 29 29 31 33 33 31 30 29 26 26 25 21 13 6
11 14 16 17 17 19 20 20 20 20 20 21 22 24 24 24 26 28 30 30 33 33 35 35 35 30 28 25 27 27 20 13
12 14 16 17 17 19 20 20 19 20 21 22 23 23 25 25 27 29 29 29 33 33 32 38 38 35 32 30 29 29 28 23
12 15 17 17 18 19 19 20 20 20 21 23 23 24 25 27 28 28 29 30 32 34 33 36 39 35 34 30 28 30 30 29
14 16 17 18 19 19 19 20 20 21 22 23 23 25 26 27 28 29 31 31 32 34 35 36 39 39 39 36 32 30 32 32
15 16 17 18 19 19 20 21 21 22 24 24 25 25 26 27 29 29 32 32 32 34 36 37 38 40 39 39 39 33 32 35
Wind_Direction
269 272 279 281 287 289 296 300 304 308 312 314 314 314 311 309 307 305 303 303 302 299 298 298 294 292 289 285 283 281 280 277
265 274 275 288 291 292 297 302 307 311 314 316 316 316 315 312 311 310 308 307 304 301 299 297 295 292 289 286 283 281 279 276
254 265 285 290 290 297 301 306 309 314 317 318 318 317 316 314 312 311 309 308 306 302 300 298 295 292 289 286 283 280 277 275
254 271 275 291 301 303 304 310 314 318 320 320 319 319 318 316 315 313 312 311 309 306 302 299 296 293 290 288 284 278 275 273
259 272 286 293 302 307 310 315 317 319 322 323 323 321 320 319 317 315 315 313 311 307 305 302 299 296 293 290 285 278 274 271
248 277 295 305 313 317 317 318 321 323 325 325 324 324 322 321 320 318 317 315 313 311 309 306 303 300 297 291 285 279 273 269
246 269 304 323 323 323 324 324 326 327 328 327 327 327 325 324 323 322 320 320 318 317 313 310 307 303 297 292 287 280 274 268
219 308 334 332 332 331 330 330 330 330 330 330 330 329 329 328 327 326 328 327 325 322 319 315 312 308 302 296 287 280 274 266
80 3 344 339 338 338 336 334 333 333 333 333 333 334 333 332 334 336 335 334 331 328 328 326 321 315 310 305 293 285 275 265
46 5 348 343 342 340 338 338 338 337 338 339 339 338 339 343 343 341 340 339 339 338 338 336 333 332 326 320 311 296 279 266
20 359 352 348 346 344 344 344 344 344 344 344 343 346 350 351 350 349 346 347 347 347 341 339 337 334 335 331 327 314 286 267
26 9 359 354 351 351 350 352 350 349 349 350 354 358 357 358 357 357 357 355 351 349 348 346 347 345 340 341 336 328 301 272
28 13 4 0 357 358 360 356 355 355 358 3 4 4 5 5 4 3 1 360 360 356 354 355 354 360 1 358 358 352 340 291
25 17 10 4 4 6 4 3 4 7 13 12 11 10 8 8 9 8 9 9 7 6 4 5 4 3 9 12 18 17 12 6
29 19 14 12 13 11 11 12 16 20 20 18 17 15 19 19 16 15 17 18 18 20 21 20 18 17 17 22 26 31 34 44
31 23 20 20 21 20 21 24 27 27 26 23 22 22 22 20 18 19 23 25 25 24 22 22 26 30 32 36 36 38 44 54
36 29 28 31 26 29 31 32 34 31 30 27 25 26 26 25 28 29 28 27 26 24 25 26 27 30 29 35 36 40 52 60
40 36 36 36 36 38 36 37 37 34 32 31 29 30 30 32 32 32 31 30 30 30 31 30 32 32 35 38 42 52 58 65
47 43 43 44 44 44 44 41 40 38 36 35 33 34 34 34 35 35 34 33 34 33 33 34 34 36 39 43 46 55 62 69